SNAP-3 EDDIE

Last updated on Sun Dec 14 2025 00:03:49 GMT+0000 (Coordinated Universal Time)

1 40972U 15058J 25347.29513151 .00061073 00000+0 17301-2 0 9999 2 40972 64.7538 4.1653 0047357 123.6990 236.8672 15.34770693 90280
UTC large
Height (km)
Speed (km/s)
/
Latitude / Longitude
Inclination (degrees)
Orbital Period (minutes)
Azimuth
Elevation
Range (km)
Doppler Factor

Next 0 passes for location: London (51.5072 / 0.1276)

Sorry there are no passes over London.